{"data":{"norad_id":60441,"intl_designator":"2024-144S","name":"STARLINK-32177","alt_names":[],"object_type":"PAYLOAD","status":"ACTIVE","operator":null,"country":"US","launch_date":"2024-08-12","launch_site_code":"AFETR","launch_vehicle":null,"mission":null,"orbit_class":"UNKNOWN","rcs_meters":null,"size_class":null,"mass_kg":null,"dimensions":null,"purposes":["comms"],"wikipedia_slug":null,"has_3d_model":false,"image_url":null,"decayed_at":null,"tle_current":{"epoch":"2026-05-24T13:51:29.361024Z","epoch_age_seconds":108217,"freshness":"FRESH","line1":"1 60441U 24144S   26144.57742316 -.00000263  00000+0  33453-5 0  9996","line2":"2 60441  53.1592 223.5248 0001069  73.7928 286.3192 15.34384621100942","mean_motion":15.34384621,"eccentricity":0.0001069,"inclination_deg":53.1592,"raan_deg":223.5248,"arg_perigee_deg":73.7928,"mean_anomaly_deg":286.3192,"bstar":3.3453e-6,"rev_number":10094,"period_min":93.848698709031,"perigee_km":462.01765950979,"apogee_km":463.48024092595,"semimajor_km":6840.8859502179,"source":"CELESTRAK","updated_at":"2026-05-25T13:38:19.276096Z"}}}